KC5TIL Weather Reports


Display with metric or nautical units.
time (UTC)temp
F
wind
direction
speed
MPH
gust
MPH
rain 1hr
in
rain 24hr
in
rain mn
in
humidity
%
barometer
mb
20260906181532 97 165 2.0 5.0 0.00 0.00 0.00 48 1013.8
20260906181028 97 79 2.0 3.0 0.00 0.00 0.00 51 1014.0
20260906180522 98 107 4.0 6.0 0.00 0.00 0.00 48 1014.1
20260906180021 98 100 3.0 5.0 0.00 0.00 0.00 50 1014.1
20260906175521 97 117 1.0 5.0 0.00 0.00 0.00 50 1014.2
20260906175021 96 107 1.0 3.0 0.00 0.00 0.00 52 1014.3
20260906174519 97 115 5.0 6.0 0.00 0.00 0.00 51 1014.3
20260906174014 97 152 1.0 5.0 0.00 0.00 0.00 49 1014.5
20260906173509 96 95 2.0 2.0 0.00 0.00 0.00 52 1014.6
20260906173005 97 70 2.0 2.0 0.00 0.00 0.00 50 1014.7
20260906172459 95 60 3.0 5.0 0.00 0.00 0.00 49 1015.1
20260906171954 96 60 5.0 8.0 0.00 0.00 0.00 52 1015.0
20260906171449 96 200 3.0 7.0 0.00 0.00 0.00 50 1015.1
20260906170944 95 54 2.0 5.0 0.00 0.00 0.00 51 1015.1
20260906170441 96 139 0.0 3.0 0.00 0.00 0.00 53 1015.1
20260906165938 95 171 2.0 5.0 0.00 0.00 0.00 54 1015.2
20260906165437 95 91 1.0 2.0 0.00 0.00 0.00 54 1015.1
20260906164932 95 204 2.0 6.0 0.00 0.00 0.00 54 1015.2
20260906164430 94 92 0.0 1.0 0.00 0.00 0.00 54 1015.3
20260906163927 95 90 3.0 3.0 0.00 0.00 0.00 53 1015.4
20260906163423 94 108 2.0 5.0 0.00 0.00 0.00 54 1015.2
20260906162921 95 136 1.0 3.0 0.00 0.00 0.00 54 1015.1
20260906162419 94 50 2.0 6.0 0.00 0.00 0.00 55 1015.5
20260906161915 93 190 3.0 5.0 0.00 0.00 0.00 57 1015.3
20260906161414 93 161 1.0 3.0 0.00 0.00 0.00 58 1015.2
20260906160913 94 72 1.0 2.0 0.00 0.00 0.00 58 1015.4
20260906160407 91 125 1.0 2.0 0.00 0.00 0.00 61 1015.1
20260906155905 91 83 2.0 5.0 0.00 0.00 0.00 63 1015.5
20260906155359 92 49 2.0 2.0 0.00 0.00 0.00 62 1015.2
20260906154855 91 85 2.0 3.0 0.00 0.00 0.00 63 1015.3
20260906154349 92 111 1.0 2.0 0.00 0.00 0.00 62 1015.4
20260906153848 91 80 2.0 3.0 0.00 0.00 0.00 62 1015.2
20260906153347 91 94 0.0 2.0 0.00 0.00 0.00 64 1015.3
20260906152842 90 74 2.0 2.0 0.00 0.00 0.00 63 1015.2
20260906152337 90 116 1.0 2.0 0.00 0.00 0.00 64 1015.1
20260906151837 91 60 1.0 3.0 0.00 0.00 0.00 65 1015.1
20260906151332 91 100 1.0 2.0 0.00 0.00 0.00 63 1015.2
20260906150828 90 120 1.0 2.0 0.00 0.00 0.00 64 1015.3
20260906150324 89 99 1.0 2.0 0.00 0.00 0.00 64 1015.2
20260906145823 89 67 1.0 2.0 0.00 0.00 0.00 65 1015.3
20260906145321 88 112 1.0 2.0 0.00 0.00 0.00 66 1015.1
20260906144816 89 92 1.0 2.0 0.00 0.00 0.00 65 1015.2
20260906144311 88 104 1.0 2.0 0.00 0.00 0.00 68 1015.0
20260906143811 89 112 0.0 2.0 0.00 0.00 0.00 66 1014.9
20260906143308 87 95 1.0 2.0 0.00 0.00 0.00 68 1014.9
20260906142802 87 72 1.0 1.0 0.00 0.00 0.00 70 1014.9
20260906142258 86 109 0.0 1.0 0.00 0.00 0.00 69 1015.2
20260906141756 86 88 1.0 2.0 0.00 0.00 0.00 70 1015.1
20260906141251 88 91 1.0 1.0 0.00 0.00 0.00 69 1015.0
20260906140750 87 89 1.0 1.0 0.00 0.00 0.00 69 1015.0
20260906140245 86 97 1.0 2.0 0.00 0.00 0.00 70 1014.8
20260906135743 87 91 0.0 1.0 0.00 0.00 0.00 70 1014.9
20260906135238 86 129 1.0 2.0 0.00 0.00 0.00 70 1014.8
20260906134734 86 135 0.0 2.0 0.00 0.00 0.00 71 1014.9
20260906134229 86 117 1.0 2.0 0.00 0.00 0.00 72 1014.9
20260906133724 85 117 1.0 1.0 0.00 0.00 0.00 73 1015.0
20260906133220 85 123 0.0 1.0 0.00 0.00 0.00 74 1014.8
20260906132715 85 102 1.0 2.0 0.00 0.00 0.00 73 1015.1
20260906132211 85 122 0.0 1.0 0.00 0.00 0.00 73 1015.1
20260906131706 84 117 0.0 1.0 0.00 0.00 0.00 75 1014.9
20260906131201 83 110 0.0 2.0 0.00 0.00 0.00 76 1014.9
20260906130656 83 127 0.0 2.0 0.00 0.00 0.00 76 1015.1
20260906130151 83 137 1.0 1.0 0.00 0.00 0.00 76 1015.2
20260906125649 82 125 0.0 1.0 0.00 0.00 0.00 77 1014.8
20260906125148 82 128 0.0 1.0 0.00 0.00 0.00 78 1015.0
20260906124643 81 105 0.0 1.0 0.00 0.00 0.00 80 1014.8
20260906124139 80 131 0.0 0.0 0.00 0.00 0.00 81 1014.9
20260906123638 80 129 0.0 1.0 0.00 0.00 0.00 82 1014.9
20260906123133 80 139 1.0 3.0 0.00 0.00 0.00 82 1014.7
20260906122632 79 136 0.0 1.0 0.00 0.00 0.00 83 1014.8
20260906122128 79 141 1.0 1.0 0.00 0.00 0.00 83 1014.8
20260906121624 79 158 2.0 2.0 0.00 0.00 0.00 83 1014.8
20260906121120 79 153 1.0 1.0 0.00 0.00 0.00 83 1014.9
20260906120615 79 130 0.0 1.0 0.00 0.00 0.00 83 1014.7
20260906120113 79 139 1.0 1.0 0.00 0.00 0.00 83 1014.5
20260906115607 79 129 0.0 0.0 0.00 0.00 0.00 83 1014.4
20260906115102 80 129 0.0 1.0 0.00 0.00 0.00 82 1014.4
20260906114556 80 132 1.0 1.0 0.00 0.00 0.00 82 1014.3
20260906114051 80 127 0.0 1.0 0.00 0.00 0.00 82 1014.4
20260906113550 79 128 0.0 1.0 0.00 0.00 0.00 82 1014.4
20260906113046 79 133 1.0 1.0 0.00 0.00 0.00 83 1014.3
20260906112540 79 129 0.0 0.0 0.00 0.00 0.00 83 1014.2
20260906112037 79 129 0.0 0.0 0.00 0.00 0.00 83 1014.2
20260906111536 79 127 0.0 0.0 0.00 0.00 0.00 84 1014.1
20260906111032 79 126 0.0 0.0 0.00 0.00 0.00 84 1014.2
20260906110532 79 123 0.0 0.0 0.00 0.00 0.00 83 1014.1
20260906110030 79 121 0.0 0.0 0.00 0.00 0.00 83 1014.2
20260906105526 79 122 0.0 0.0 0.00 0.00 0.00 83 1013.9
20260906105022 79 123 0.0 0.0 0.00 0.00 0.00 82 1013.9
20260906104520 80 107 0.0 0.0 0.00 0.00 0.00 82 1013.8
20260906104015 79 130 0.0 1.0 0.00 0.00 0.00 82 1014.0
20260906103513 79 116 0.0 0.0 0.00 0.00 0.00 82 1013.9
20260906103009 79 125 0.0 0.0 0.00 0.00 0.00 82 1014.0
20260906102508 79 119 0.0 0.0 0.00 0.00 0.00 82 1014.0
20260906102003 79 121 0.0 0.0 0.00 0.00 0.00 82 1014.0
20260906101458 79 123 0.0 0.0 0.00 0.00 0.00 81 1013.6
20260906100953 79 125 0.0 0.0 0.00 0.00 0.00 82 1013.7
20260906100448 80 123 0.0 0.0 0.00 0.00 0.00 81 1013.6
20260906095942 80 122 0.0 0.0 0.00 0.00 0.00 81 1013.6
20260906095437 80 107 0.0 0.0 0.00 0.00 0.00 81 1013.4
20260906094933 80 123 0.0 0.0 0.00 0.00 0.00 81 1013.5
20260906094426 80 125 0.0 0.0 0.00 0.00 0.00 81 1013.4
20260906093922 80 125 0.0 0.0 0.00 0.00 0.00 81 1013.2
20260906093419 80 124 0.0 0.0 0.00 0.00 0.00 81 1013.3
20260906092913 80 137 0.0 1.0 0.00 0.00 0.00 81 1013.3
20260906092413 80 126 0.0 0.0 0.00 0.00 0.00 82 1013.5
20260906091908 79 129 0.0 0.0 0.00 0.00 0.00 82 1013.1
20260906091404 79 111 0.0 0.0 0.00 0.00 0.00 81 1013.2
20260906090901 80 117 0.0 0.0 0.00 0.00 0.00 81 1013.2
20260906090400 80 119 0.0 0.0 0.00 0.00 0.00 81 1013.3
20260906085854 80 116 0.0 0.0 0.00 0.00 0.00 80 1013.1
20260906085348 80 120 0.0 0.0 0.00 0.00 0.00 80 1013.2
20260906084843 80 124 0.0 1.0 0.00 0.00 0.00 80 1013.0
20260906084343 80 123 0.0 0.0 0.00 0.00 0.00 80 1013.1
20260906083837 80 113 0.0 0.0 0.00 0.00 0.00 80 1013.1
20260906083332 80 114 0.0 0.0 0.00 0.00 0.00 79 1013.2
20260906082826 80 121 0.0 0.0 0.00 0.00 0.00 79 1013.1
20260906082322 81 119 0.0 0.0 0.00 0.00 0.00 79 1013.1
20260906081818 81 118 0.0 0.0 0.00 0.00 0.00 78 1013.2
20260906081313 81 127 0.0 0.0 0.00 0.00 0.00 78 1013.2
20260906080809 81 110 0.0 0.0 0.00 0.00 0.00 77 1013.1
20260906080305 82 122 0.0 0.0 0.00 0.00 0.00 77 1013.1
20260906075805 82 116 0.0 1.0 0.00 0.00 0.00 77 1013.1
20260906075306 82 101 0.0 1.0 0.00 0.00 0.00 76 1013.3
20260906074800 82 126 1.0 1.0 0.00 0.00 0.00 76 1013.3
20260906074259 82 128 0.0 0.0 0.00 0.00 0.00 76 1013.2
20260906073759 82 134 1.0 2.0 0.00 0.00 0.00 76 1013.3
20260906073253 82 133 0.0 1.0 0.00 0.00 0.00 76 1013.3
20260906072749 82 110 0.0 2.0 0.00 0.00 0.00 76 1013.1
20260906072245 82 126 0.0 3.0 0.00 0.00 0.00 76 1013.3
20260906071741 82 130 1.0 2.0 0.00 0.00 0.00 76 1013.3
20260906071241 82 128 1.0 2.0 0.00 0.00 0.00 76 1013.2
20260906070737 82 124 1.0 1.0 0.00 0.00 0.00 76 1013.3
20260906070233 82 130 1.0 1.0 0.00 0.00 0.00 76 1013.5
20260906065732 83 140 1.0 1.0 0.00 0.00 0.00 75 1013.6
20260906065228 83 120 0.0 1.0 0.00 0.00 0.00 75 1013.3
20260906064723 83 111 0.0 2.0 0.00 0.00 0.00 75 1013.6
20260906064219 83 113 1.0 1.0 0.00 0.00 0.00 74 1013.5
20260906063714 83 125 0.0 1.0 0.00 0.00 0.00 74 1013.6
20260906063209 83 130 0.0 1.0 0.00 0.00 0.00 74 1013.6
20260906062705 83 135 0.0 2.0 0.00 0.00 0.00 74 1013.7
20260906062204 83 114 2.0 2.0 0.00 0.00 0.00 74 1013.6
20260906061700 83 117 0.0 1.0 0.00 0.00 0.00 75 1013.8
20260906061155 83 123 0.0 1.0 0.00 0.00 0.00 74 1013.6
20260906060651 84 121 0.0 1.0 0.00 0.00 0.00 74 1013.7
20260906060148 84 113 0.0 1.0 0.00 0.00 0.00 74 1013.7
20260906055643 84 118 1.0 2.0 0.00 0.00 0.00 74 1013.8
20260906055139 84 113 0.0 1.0 0.00 0.00 0.00 74 1013.6
20260906054634 84 130 0.0 1.0 0.00 0.00 0.00 74 1013.5
20260906054129 84 115 0.0 1.0 0.00 0.00 0.00 74 1013.4
20260906053626 84 111 0.0 1.0 0.00 0.00 0.00 73 1013.5
20260906053120 84 119 0.0 0.0 0.00 0.00 0.00 73 1013.5
20260906052616 84 112 0.0 1.0 0.00 0.00 0.00 73 1013.5
20260906052112 85 118 0.0 0.0 0.00 0.00 0.00 73 1013.2
20260906051603 85 134 1.0 3.0 0.00 0.00 0.00 72 1013.5
20260906051058 85 121 1.0 1.0 0.00 0.00 0.00 72 1013.6
20260906050558 85 116 0.0 1.0 0.00 0.00 0.00 72 1013.6
20260906050048 85 139 0.0 2.0 0.00 0.00 0.00 72 1013.5
20260906045546 85 111 1.0 1.0 0.00 0.00 0.00 72 1013.4
20260906045042 85 124 1.0 2.0 0.00 0.00 0.00 72 1013.5
20260906044537 85 122 0.0 2.0 0.00 0.00 0.00 72 1013.5
20260906044033 85 128 0.0 1.0 0.00 0.00 0.00 72 1013.4
20260906043528 86 145 1.0 2.0 0.00 0.00 0.00 71 1013.4
20260906043025 86 125 0.0 1.0 0.00 0.00 0.00 70 1013.2
20260906042522 86 146 1.0 2.0 0.00 0.00 0.00 70 1013.3
20260906042018 86 108 1.0 1.0 0.00 0.00 0.00 69 1013.4
20260906041514 86 94 1.0 2.0 0.00 0.00 0.00 69 1013.2
20260906041014 86 128 1.0 1.0 0.00 0.00 0.00 69 1013.1
20260906040509 86 127 0.0 0.0 0.00 0.00 0.00 69 1013.1
20260906040004 87 128 0.0 1.0 0.00 0.00 0.00 68 1013.1
20260906035459 87 132 0.0 1.0 0.00 0.00 0.00 68 1013.3
20260906034955 87 127 0.0 1.0 0.00 0.00 0.00 67 1013.4
20260906034454 87 133 1.0 2.0 0.00 0.00 0.00 67 1013.1
20260906033950 87 124 1.0 2.0 0.00 0.00 0.00 66 1013.3
20260906033444 87 125 1.0 3.0 0.00 0.00 0.00 66 1013.3
20260906032940 87 125 1.0 2.0 0.00 0.00 0.00 66 1013.2
20260906032437 88 125 0.0 1.0 0.00 0.00 0.00 66 1013.1
20260906031930 88 122 1.0 2.0 0.00 0.00 0.00 66 1013.3
20260906031426 88 133 2.0 2.0 0.00 0.00 0.00 65 1013.5
20260906030921 88 141 1.0 2.0 0.00 0.00 0.00 65 1013.4
20260906030416 88 124 1.0 2.0 0.00 0.00 0.00 65 1013.3
20260906025910 88 128 2.0 5.0 0.00 0.00 0.00 65 1013.1
20260906025405 88 101 1.0 2.0 0.00 0.00 0.00 65 1013.3
20260906024904 88 133 1.0 5.0 0.00 0.00 0.00 64 1013.3
20260906024403 88 154 3.0 5.0 0.00 0.00 0.00 64 1013.1
20260906023858 88 132 0.0 2.0 0.00 0.00 0.00 65 1013.1
20260906023354 88 87 1.0 2.0 0.00 0.00 0.00 64 1013.0
20260906022849 88 134 1.0 5.0 0.00 0.00 0.00 64 1013.2
20260906022344 89 141 0.0 3.0 0.00 0.00 0.00 65 1012.7
20260906021840 89 163 1.0 5.0 0.00 0.00 0.00 63 1012.7
20260906021339 89 136 3.0 6.0 0.00 0.00 0.00 63 1012.7
20260906020834 89 170 2.0 2.0 0.00 0.00 0.00 64 1012.4
20260906020333 89 139 4.0 6.0 0.00 0.00 0.00 63 1012.5
20260906015828 89 157 4.0 6.0 0.00 0.00 0.00 62 1012.4
20260906015327 89 121 2.0 6.0 0.00 0.00 0.00 62 1012.3
20260906014827 90 146 2.0 3.0 0.00 0.00 0.00 62 1012.2
20260906014322 90 156 3.0 5.0 0.00 0.00 0.00 62 1012.5
20260906013818 90 145 1.0 3.0 0.00 0.00 0.00 61 1012.2
20260906013313 91 183 4.0 6.0 0.00 0.00 0.00 59 1012.0
20260906012809 91 131 2.0 7.0 0.00 0.00 0.00 59 1012.2
20260906012309 91 179 3.0 5.0 0.00 0.00 0.00 60 1011.8
20260906011804 91 106 2.0 6.0 0.00 0.00 0.00 59 1011.7
20260906011258 92 130 3.0 7.0 0.00 0.00 0.00 57 1011.6
20260906010754 92 136 2.0 6.0 0.00 0.00 0.00 59 1011.8
20260906010250 93 118 2.0 8.0 0.00 0.00 0.00 59 1011.8
20260906005745 94 103 5.0 8.0 0.00 0.00 0.00 53 1011.4
20260906005244 95 152 1.0 2.0 0.00 0.00 0.00 52 1011.4
20260906004743 95 136 1.0 2.0 0.00 0.00 0.00 49 1011.3
20260906004238 95 154 2.0 3.0 0.00 0.00 0.00 50 1011.2
20260906003733 95 144 2.0 3.0 0.00 0.00 0.00 51 1011.2
20260906003229 96 163 1.0 2.0 0.00 0.00 0.00 49 1011.1
20260906002723 96 102 2.0 2.0 0.00 0.00 0.00 49 1011.3
20260906002218 96 142 1.0 2.0 0.00 0.00 0.00 48 1011.2
20260906001714 96 213 4.0 5.0 0.00 0.00 0.00 45 1011.2
20260906001214 96 78 2.0 2.0 0.00 0.00 0.00 46 1011.3
20260906000709 96 171 1.0 2.0 0.00 0.00 0.00 45 1011.2
20260906000204 96 115 1.0 2.0 0.00 0.00 0.00 43 1011.0
20260905235703 96 98 1.0 2.0 0.00 0.00 0.00 45 1011.0
20260905235158 96 130 1.0 2.0 0.00 0.00 0.00 44 1011.1
20260905234653 96 126 1.0 1.0 0.00 0.00 0.00 47 1011.0
20260905234149 96 116 1.0 2.0 0.00 0.00 0.00 47 1011.0
20260905233644 97 132 0.0 1.0 0.00 0.00 0.00 48 1010.8
20260905233143 97 141 2.0 3.0 0.00 0.00 0.00 43 1010.8
20260905232638 97 142 3.0 3.0 0.00 0.00 0.00 42 1010.8
20260905232134 98 139 1.0 2.0 0.00 0.00 0.00 42 1011.0
20260905231629 98 118 2.0 5.0 0.00 0.00 0.00 42 1010.9
20260905231126 98 167 1.0 3.0 0.00 0.00 0.00 40 1010.9
20260905230621 99 139 1.0 2.0 0.00 0.00 0.00 44 1010.8
20260905230118 98 137 1.0 2.0 0.00 0.00 0.00 41 1010.9
20260905225613 99 106 1.0 1.0 0.00 0.00 0.00 43 1010.8
20260905225107 99 116 1.0 3.0 0.00 0.00 0.00 40 1010.9
20260905224602 99 165 1.0 5.0 0.00 0.00 0.00 41 1010.9
20260905224101 99 117 1.0 2.0 0.00 0.00 0.00 41 1010.8
20260905223559 99 84 2.0 2.0 0.00 0.00 0.00 42 1010.8
20260905223055 100 127 0.0 3.0 0.00 0.00 0.00 41 1011.0
20260905222555 99 93 1.0 2.0 0.00 0.00 0.00 40 1010.9
20260905222050 99 116 1.0 2.0 0.00 0.00 0.00 39 1010.8
20260905221546 99 335 1.0 5.0 0.00 0.00 0.00 40 1011.0
20260905221042 99 99 1.0 3.0 0.00 0.00 0.00 43 1011.0
20260905220538 100 157 2.0 2.0 0.00 0.00 0.00 42 1011.2
20260905220034 99 145 2.0 3.0 0.00 0.00 0.00 42 1011.1
20260905215533 99 88 1.0 3.0 0.00 0.00 0.00 44 1011.1
20260905215029 99 97 2.0 5.0 0.00 0.00 0.00 43 1011.2
20260905214525 100 81 3.0 5.0 0.00 0.00 0.00 43 1011.2
20260905214020 99 63 1.0 3.0 0.00 0.00 0.00 42 1011.4
20260905213515 100 82 3.0 5.0 0.00 0.00 0.00 43 1011.4
20260905213011 100 154 3.0 3.0 0.00 0.00 0.00 40 1011.4
20260905212505 102 97 2.0 3.0 0.00 0.00 0.00 41 1011.6
20260905212004 100 141 1.0 2.0 0.00 0.00 0.00 39 1011.5
20260905211500 100 146 2.0 2.0 0.00 0.00 0.00 40 1011.6
20260905210956 99 125 2.0 2.0 0.00 0.00 0.00 43 1011.7
20260905210451 99 106 3.0 6.0 0.00 0.00 0.00 43 1011.6
20260905205950 99 129 1.0 2.0 0.00 0.00 0.00 41 1011.9
20260905205445 100 318 6.0 7.0 0.00 0.00 0.00 40 1012.0
20260905204944 101 42 4.0 5.0 0.00 0.00 0.00 41 1012.1
20260905204440 100 152 2.0 3.0 0.00 0.00 0.00 40 1012.0
20260905203939 101 102 1.0 3.0 0.00 0.00 0.00 40 1012.1
20260905203435 102 166 1.0 2.0 0.00 0.00 0.00 38 1012.1
20260905202930 99 147 3.0 5.0 0.00 0.00 0.00 39 1012.0
20260905202425 99 98 2.0 5.0 0.00 0.00 0.00 45 1012.3
20260905201921 99 12 3.0 5.0 0.00 0.00 0.00 41 1012.3
20260905201415 100 117 0.0 3.0 0.00 0.00 0.00 40 1012.4
20260905200910 99 192 2.0 7.0 0.00 0.00 0.00 41 1012.5
20260905200406 97 66 1.0 3.0 0.00 0.00 0.00 41 1012.5
20260905195903 99 25 3.0 5.0 0.00 0.00 0.00 40 1012.8
20260905195359 98 132 1.0 2.0 0.00 0.00 0.00 41 1013.0
20260905194855 96 131 0.0 1.0 0.00 0.00 0.00 44 1012.8
20260905194354 96 75 1.0 3.0 0.00 0.00 0.00 45 1013.0
20260905193848 97 96 4.0 5.0 0.00 0.00 0.00 44 1013.1
20260905193343 96 104 1.0 3.0 0.00 0.00 0.00 45 1013.3
20260905192838 95 103 1.0 2.0 0.00 0.00 0.00 45 1013.1
20260905192334 96 79 3.0 3.0 0.00 0.00 0.00 45 1013.4
20260905191833 96 121 2.0 3.0 0.00 0.00 0.00 46 1013.4
20260905191332 96 109 1.0 3.0 0.00 0.00 0.00 46 1013.4
20260905190831 97 81 1.0 2.0 0.00 0.00 0.00 46 1013.6
20260905190325 98 88 2.0 5.0 0.00 0.00 0.00 45 1013.7
20260905185824 98 109 3.0 5.0 0.00 0.00 0.00 44 1013.7
20260905185319 98 100 1.0 5.0 0.00 0.00 0.00 45 1013.9
20260905184818 97 147 1.0 3.0 0.00 0.00 0.00 46 1013.9
20260905184317 97 72 1.0 5.0 0.00 0.00 0.00 45 1013.8
20260905183816 96 74 3.0 6.0 0.00 0.00 0.00 46 1014.1
20260905183312 94 16 2.0 3.0 0.00 0.00 0.00 47 1014.1
20260905182806 95 132 0.0 1.0 0.00 0.00 0.00 47 1014.1
20260905182306 96 144 1.0 3.0 0.00 0.00 0.00 47 1014.1
20260905181801 98 118 2.0 2.0 0.00 0.00 0.00 46 1014.3